| time (UTC) | temp C | wind direction | speed KPH | gust KPH | rain 1hr cm | rain 24hr cm | rain mn cm | humidity % | barometer mb |
| 20260506224118 | 15 | 119 | 0.0 | 3.2 | 0.00 | 0.53 | 0.53 | 99 | 1008.9 |
| 20260506223615 | 15 | 137 | 4.8 | 11.3 | 0.00 | 0.53 | 0.53 | 99 | 1009.0 |
| 20260506223111 | 15 | 126 | 1.6 | 3.2 | 0.00 | 0.53 | 0.53 | 99 | 1008.8 |
| 20260506222608 | 15 | 120 | 4.8 | 16.1 | 0.00 | 0.53 | 0.53 | 99 | 1009.0 |
| 20260506222104 | 15 | 123 | 1.6 | 14.5 | 0.00 | 0.53 | 0.53 | 99 | 1008.9 |
| 20260506221602 | 15 | 104 | 0.0 | 8.0 | 0.00 | 0.53 | 0.53 | 99 | 1008.9 |
| 20260506221100 | 15 | 120 | 3.2 | 4.8 | 0.18 | 0.53 | 0.53 | 99 | 1008.8 |
| 20260506220556 | 15 | 141 | 4.8 | 8.0 | 0.18 | 0.53 | 0.53 | 99 | 1008.9 |
| 20260506220051 | 15 | 166 | 3.2 | 14.5 | 0.13 | 0.51 | 0.51 | 99 | 1009.1 |
| 20260506215548 | 15 | 154 | 4.8 | 11.3 | 0.23 | 0.51 | 0.51 | 99 | 1009.0 |
| 20260506215044 | 15 | 121 | 1.6 | 3.2 | 0.30 | 0.48 | 0.48 | 99 | 1009.0 |
| 20260506214541 | 15 | 121 | 3.2 | 8.0 | 0.30 | 0.46 | 0.46 | 99 | 1009.1 |
| 20260506214038 | 15 | 116 | 0.0 | 4.8 | 0.13 | 0.43 | 0.43 | 99 | 1009.0 |
| 20260506213536 | 15 | 203 | 0.0 | 4.8 | 0.00 | 0.41 | 0.41 | 99 | 1008.9 |
| 20260506213033 | 15 | 179 | 8.0 | 14.5 | 0.00 | 0.41 | 0.41 | 99 | 1008.9 |
| 20260506212530 | 15 | 114 | 1.6 | 4.8 | 0.00 | 0.41 | 0.41 | 99 | 1008.9 |
| 20260506212025 | 15 | 106 | 0.0 | 4.8 | 0.00 | 0.41 | 0.41 | 99 | 1009.1 |
| 20260506211521 | 15 | 132 | 3.2 | 3.2 | 0.00 | 0.41 | 0.41 | 99 | 1009.1 |
| 20260506211018 | 15 | 113 | 1.6 | 19.3 | 0.00 | 0.41 | 0.41 | 99 | 1009.2 |
| 20260506210515 | 15 | 143 | 6.4 | 16.1 | 0.18 | 0.41 | 0.41 | 99 | 1009.2 |
| 20260506210012 | 15 | 113 | 0.0 | 14.5 | 0.18 | 0.41 | 0.41 | 99 | 1009.2 |
| 20260506205508 | 15 | 180 | 4.8 | 4.8 | 0.00 | 0.38 | 0.38 | 99 | 1009.2 |
| 20260506205004 | 15 | 133 | 4.8 | 8.0 | 0.13 | 0.38 | 0.38 | 99 | 1009.0 |
| 20260506204502 | 15 | 116 | 3.2 | 14.5 | 0.13 | 0.38 | 0.38 | 99 | 1009.2 |
| 20260506203959 | 15 | 105 | 0.0 | 8.0 | 0.13 | 0.36 | 0.36 | 99 | 1009.2 |
| 20260506203456 | 15 | 103 | 1.6 | 8.0 | 0.00 | 0.33 | 0.33 | 99 | 1009.3 |
| 20260506202953 | 15 | 106 | 6.4 | 14.5 | 0.18 | 0.33 | 0.33 | 99 | 1009.5 |
| 20260506202450 | 15 | 184 | 4.8 | 16.1 | 0.30 | 0.33 | 0.33 | 99 | 1009.4 |
| 20260506201946 | 15 | 127 | 6.4 | 11.3 | 0.13 | 0.30 | 0.30 | 99 | 1009.5 |
| 20260506201444 | 15 | 167 | 4.8 | 11.3 | 0.00 | 0.28 | 0.28 | 99 | 1009.5 |
| 20260506200940 | 15 | 136 | 0.0 | 4.8 | 0.00 | 0.28 | 0.28 | 99 | 1009.7 |
| 20260506200437 | 15 | 130 | 1.6 | 8.0 | 0.00 | 0.28 | 0.28 | 99 | 1009.7 |
| 20260506195933 | 15 | 107 | 4.8 | 11.3 | 0.00 | 0.28 | 0.28 | 99 | 1009.8 |
| 20260506195430 | 15 | 138 | 14.5 | 19.3 | 0.18 | 0.28 | 0.28 | 99 | 1010.0 |
| 20260506194927 | 15 | 89 | 0.0 | 11.3 | 0.00 | 0.25 | 0.25 | 99 | 1009.8 |
| 20260506194424 | 15 | 142 | 3.2 | 4.8 | 0.00 | 0.25 | 0.25 | 99 | 1010.0 |
| 20260506193921 | 15 | 226 | 8.0 | 8.0 | 0.13 | 0.25 | 0.25 | 99 | 1010.0 |
| 20260506193418 | 15 | 116 | 4.8 | 14.5 | 0.13 | 0.25 | 0.25 | 99 | 1010.0 |
| 20260506192914 | 15 | 118 | 3.2 | 22.5 | 0.00 | 0.23 | 0.23 | 99 | 1010.1 |
| 20260506192411 | 15 | 215 | 6.4 | 16.1 | 0.00 | 0.23 | 0.23 | 99 | 1010.1 |
| 20260506191908 | 15 | 138 | 3.2 | 11.3 | 0.00 | 0.23 | 0.23 | 99 | 1010.0 |
| 20260506191405 | 15 | 187 | 9.7 | 19.3 | 0.18 | 0.23 | 0.23 | 99 | 1010.0 |
| 20260506190902 | 15 | 113 | 3.2 | 4.8 | 0.23 | 0.20 | 0.20 | 99 | 1010.2 |
| 20260506190358 | 15 | 266 | 11.3 | 16.1 | 0.13 | 0.18 | 0.18 | 99 | 1010.3 |
| 20260506185855 | 15 | 144 | 4.8 | 8.0 | 0.00 | 0.18 | 0.18 | 99 | 1010.5 |
| 20260506185352 | 16 | 114 | 1.6 | 11.3 | 0.00 | 0.18 | 0.18 | 99 | 1010.4 |
| 20260506184849 | 16 | 95 | 4.8 | 14.5 | 0.18 | 0.18 | 0.18 | 99 | 1010.2 |
| 20260506184346 | 16 | 206 | 4.8 | 16.1 | 0.18 | 0.18 | 0.18 | 99 | 1010.3 |
| 20260506183844 | 16 | 136 | 1.6 | 11.3 | 0.00 | 0.15 | 0.15 | 99 | 1010.0 |
| 20260506183338 | 16 | 147 | 1.6 | 4.8 | 0.13 | 0.15 | 0.15 | 99 | 1010.3 |
| 20260506182831 | 16 | 108 | 4.8 | 22.5 | 0.00 | 0.13 | 0.13 | 98 | 1010.3 |
| 20260506182327 | 16 | 165 | 3.2 | 14.5 | 0.00 | 0.13 | 0.13 | 98 | 1010.3 |
| 20260506181825 | 16 | 223 | 6.4 | 11.3 | 0.00 | 0.13 | 0.13 | 97 | 1010.4 |
| 20260506181323 | 16 | 306 | 8.0 | 11.3 | 0.00 | 0.13 | 0.13 | 98 | 1010.4 |
| 20260506180820 | 16 | 144 | 4.8 | 11.3 | 0.00 | 0.13 | 0.13 | 98 | 1010.1 |
| 20260506180316 | 16 | 117 | 1.6 | 4.8 | 0.18 | 0.13 | 0.13 | 98 | 1009.8 |
| 20260506175812 | 16 | 111 | 4.8 | 8.0 | 0.18 | 0.13 | 0.13 | 97 | 1010.3 |
| 20260506175309 | 16 | 165 | 3.2 | 14.5 | 0.00 | 0.10 | 0.10 | 96 | 1010.1 |
| 20260506174806 | 17 | 113 | 0.0 | 8.0 | 0.13 | 0.10 | 0.10 | 96 | 1010.3 |
| 20260506174303 | 17 | 168 | 3.2 | 4.8 | 0.13 | 0.08 | 0.08 | 95 | 1010.4 |
| 20260506173801 | 17 | 83 | 1.6 | 11.3 | 0.13 | 0.08 | 0.08 | 94 | 1010.8 |
| 20260506173258 | 17 | 111 | 3.2 | 14.5 | 0.18 | 0.05 | 0.05 | 93 | 1010.9 |
| 20260506172754 | 18 | 103 | 1.6 | 11.3 | 0.30 | 0.05 | 0.05 | 92 | 1010.7 |
| 20260506172251 | 18 | 161 | 4.8 | 14.5 | 0.13 | 0.03 | 0.03 | 89 | 1011.0 |
| 20260506171749 | 18 | 106 | 0.0 | 4.8 | 0.00 | 0.00 | 0.00 | 88 | 1011.1 |
| 20260506171246 | 18 | 204 | 1.6 | 4.8 | 0.00 | 0.00 | 0.00 | 88 | 1011.2 |
| 20260506170743 | 18 | 95 | 3.2 | 8.0 | 0.00 | 0.00 | 0.00 | 86 | 1010.9 |
| 20260506170239 | 19 | 125 | 4.8 | 4.8 | 0.00 | 0.00 | 0.00 | 84 | 1011.0 |
| 20260506165738 | 19 | 113 | 3.2 | 8.0 | 0.00 | 0.00 | 0.00 | 82 | 1011.1 |
| 20260506165235 | 19 | 113 | 0.0 | 4.8 | 0.00 | 0.00 | 0.00 | 81 | 1011.0 |
| 20260506164732 | 20 | 147 | 1.6 | 4.8 | 0.00 | 0.00 | 0.00 | 80 | 1010.7 |
| 20260506164229 | 20 | 210 | 11.3 | 16.1 | 0.00 | 0.00 | 0.00 | 79 | 1010.8 |
| 20260506163726 | 20 | 131 | 4.8 | 11.3 | 0.00 | 0.00 | 0.00 | 79 | 1010.8 |
| 20260506163220 | 20 | 133 | 4.8 | 16.1 | 0.00 | 0.00 | 0.00 | 77 | 1011.0 |
| 20260506162717 | 20 | 208 | 3.2 | 8.0 | 0.00 | 0.00 | 0.00 | 78 | 1011.0 |
| 20260506162215 | 20 | 147 | 4.8 | 8.0 | 0.00 | 0.00 | 0.00 | 79 | 1011.3 |
| 20260506161712 | 20 | 128 | 8.0 | 11.3 | 0.00 | 0.00 | 0.00 | 79 | 1011.1 |
| 20260506161209 | 19 | 241 | 3.2 | 8.0 | 0.00 | 0.00 | 0.00 | 79 | 1011.3 |
| 20260506160706 | 19 | 161 | 6.4 | 11.3 | 0.00 | 0.00 | 0.00 | 79 | 1011.5 |
| 20260506160203 | 19 | 162 | 8.0 | 11.3 | 0.00 | 0.00 | 0.00 | 80 | 1011.5 |
| 20260506155701 | 19 | 130 | 3.2 | 11.3 | 0.00 | 0.00 | 0.00 | 80 | 1011.5 |
| 20260506155158 | 18 | 112 | 1.6 | 8.0 | 0.00 | 0.00 | 0.00 | 81 | 1011.3 |
| 20260506153300 | 18 | 141 | 8.0 | 16.1 | 0.00 | 0.00 | 0.00 | 82 | 1011.8 |
| 20260506152757 | 18 | 110 | 0.0 | 14.5 | 0.00 | 0.00 | 0.00 | 82 | 1012.0 |
| 20260506152254 | 18 | 137 | 8.0 | 14.5 | 0.00 | 0.00 | 0.00 | 81 | 1012.0 |
| 20260506151753 | 18 | 160 | 3.2 | 8.0 | 0.00 | 0.00 | 0.00 | 82 | 1012.6 |
| 20260506151249 | 18 | 131 | 3.2 | 4.8 | 0.00 | 0.00 | 0.00 | 81 | 1012.6 |
| 20260506150746 | 18 | 215 | 6.4 | 16.1 | 0.00 | 0.00 | 0.00 | 82 | 1012.5 |
| 20260506150243 | 18 | 169 | 8.0 | 14.5 | 0.00 | 0.00 | 0.00 | 83 | 1012.7 |
| 20260506145740 | 18 | 248 | 3.2 | 11.3 | 0.00 | 0.00 | 0.00 | 83 | 1012.6 |
| 20260506145236 | 18 | 91 | 1.6 | 14.5 | 0.00 | 0.00 | 0.00 | 83 | 1012.5 |
| 20260506144734 | 17 | 104 | 1.6 | 22.5 | 0.00 | 0.00 | 0.00 | 84 | 1012.6 |
| 20260506144231 | 17 | 233 | 3.2 | 8.0 | 0.00 | 0.00 | 0.00 | 84 | 1012.3 |
| 20260506143728 | 17 | 133 | 1.6 | 8.0 | 0.00 | 0.00 | 0.00 | 84 | 1012.5 |
| 20260506143225 | 17 | 181 | 4.8 | 8.0 | 0.00 | 0.00 | 0.00 | 84 | 1012.6 |
| 20260506142724 | 18 | 119 | 4.8 | 16.1 | 0.00 | 0.00 | 0.00 | 83 | 1012.5 |
| 20260506142222 | 18 | 209 | 11.3 | 14.5 | 0.00 | 0.00 | 0.00 | 83 | 1012.3 |
| 20260506141719 | 18 | 114 | 4.8 | 19.3 | 0.00 | 0.00 | 0.00 | 83 | 1012.3 |
| 20260506141218 | 17 | 115 | 4.8 | 8.0 | 0.00 | 0.00 | 0.00 | 83 | 1012.2 |
| 20260506140715 | 17 | 173 | 4.8 | 14.5 | 0.00 | 0.00 | 0.00 | 84 | 1012.8 |
| 20260506140212 | 18 | 176 | 11.3 | 19.3 | 0.00 | 0.00 | 0.00 | 83 | 1012.6 |
| 20260506135708 | 17 | 123 | 3.2 | 11.3 | 0.00 | 0.00 | 0.00 | 85 | 1012.5 |
| 20260506135205 | 17 | 114 | 0.0 | 14.5 | 0.00 | 0.00 | 0.00 | 84 | 1012.1 |
| 20260506134701 | 17 | 150 | 4.8 | 14.5 | 0.00 | 0.00 | 0.00 | 84 | 1012.1 |
| 20260506134158 | 17 | 167 | 3.2 | 8.0 | 0.00 | 0.00 | 0.00 | 85 | 1012.1 |
| 20260506133655 | 17 | 122 | 3.2 | 11.3 | 0.00 | 0.00 | 0.00 | 85 | 1012.1 |
| 20260506133151 | 17 | 127 | 6.4 | 11.3 | 0.00 | 0.00 | 0.00 | 85 | 1012.5 |
| 20260506132649 | 17 | 111 | 4.8 | 24.1 | 0.00 | 0.00 | 0.00 | 85 | 1012.1 |
| 20260506132146 | 17 | 144 | 6.4 | 14.5 | 0.00 | 0.00 | 0.00 | 85 | 1012.0 |
| 20260506131644 | 17 | 155 | 9.7 | 14.5 | 0.00 | 0.00 | 0.00 | 85 | 1012.5 |
| 20260506131139 | 17 | 127 | 6.4 | 14.5 | 0.00 | 0.00 | 0.00 | 86 | 1012.7 |
| 20260506130636 | 17 | 105 | 1.6 | 11.3 | 0.00 | 0.00 | 0.00 | 86 | 1012.5 |
| 20260506130134 | 17 | 146 | 11.3 | 16.1 | 0.00 | 0.00 | 0.00 | 85 | 1012.2 |
| 20260506125632 | 16 | 139 | 6.4 | 8.0 | 0.00 | 0.00 | 0.00 | 86 | 1012.8 |
| 20260506125129 | 16 | 128 | 3.2 | 14.5 | 0.00 | 0.00 | 0.00 | 87 | 1012.7 |
| 20260506124627 | 16 | 116 | 4.8 | 11.3 | 0.00 | 0.00 | 0.00 | 87 | 1012.6 |
| 20260506124125 | 16 | 111 | 0.0 | 14.5 | 0.00 | 0.00 | 0.00 | 87 | 1012.9 |
| 20260506123622 | 16 | 114 | 1.6 | 8.0 | 0.00 | 0.00 | 0.00 | 87 | 1012.9 |
| 20260506123121 | 16 | 118 | 1.6 | 11.3 | 0.00 | 0.00 | 0.00 | 87 | 1012.8 |
| 20260506122617 | 16 | 116 | 0.0 | 14.5 | 0.00 | 0.00 | 0.00 | 88 | 1012.9 |
| 20260506122115 | 16 | 139 | 4.8 | 8.0 | 0.00 | 0.00 | 0.00 | 88 | 1013.0 |
| 20260506121612 | 16 | 135 | 3.2 | 14.5 | 0.00 | 0.00 | 0.00 | 89 | 1013.0 |
| 20260506121108 | 16 | 146 | 3.2 | 8.0 | 0.00 | 0.00 | 0.00 | 89 | 1012.9 |
| 20260506120606 | 16 | 115 | 1.6 | 8.0 | 0.00 | 0.00 | 0.00 | 89 | 1012.9 |
| 20260506120103 | 16 | 149 | 6.4 | 11.3 | 0.00 | 0.00 | 0.00 | 89 | 1013.1 |
| 20260506115602 | 16 | 115 | 4.8 | 11.3 | 0.00 | 0.00 | 0.00 | 89 | 1012.9 |
| 20260506115100 | 16 | 119 | 0.0 | 4.8 | 0.00 | 0.00 | 0.00 | 89 | 1013.0 |
| 20260506114557 | 16 | 105 | 1.6 | 4.8 | 0.00 | 0.00 | 0.00 | 89 | 1012.8 |
| 20260506114055 | 15 | 148 | 4.8 | 11.3 | 0.00 | 0.00 | 0.00 | 89 | 1012.9 |
| 20260506113552 | 15 | 167 | 6.4 | 8.0 | 0.00 | 0.00 | 0.00 | 89 | 1013.0 |
| 20260506113050 | 15 | 106 | 0.0 | 4.8 | 0.00 | 0.00 | 0.00 | 90 | 1012.8 |
| 20260506112546 | 15 | 114 | 1.6 | 11.3 | 0.00 | 0.00 | 0.00 | 89 | 1012.9 |
| 20260506112043 | 16 | 182 | 4.8 | 8.0 | 0.00 | 0.00 | 0.00 | 89 | 1013.0 |
| 20260506111541 | 16 | 110 | 0.0 | 16.1 | 0.00 | 0.00 | 0.00 | 88 | 1013.0 |
| 20260506111038 | 16 | 104 | 4.8 | 11.3 | 0.00 | 0.00 | 0.00 | 89 | 1012.8 |
| 20260506110536 | 15 | 189 | 6.4 | 8.0 | 0.00 | 0.00 | 0.00 | 89 | 1013.1 |
| 20260506110033 | 15 | 87 | 1.6 | 4.8 | 0.00 | 0.00 | 0.00 | 91 | 1013.3 |
| 20260506105529 | 15 | 98 | 4.8 | 14.5 | 0.00 | 0.00 | 0.00 | 91 | 1013.1 |
| 20260506105026 | 15 | 122 | 0.0 | 4.8 | 0.00 | 0.00 | 0.00 | 91 | 1013.3 |
| 20260506104524 | 15 | 181 | 8.0 | 14.5 | 0.00 | 0.00 | 0.00 | 90 | 1013.1 |
| 20260506104022 | 15 | 187 | 3.2 | 4.8 | 0.00 | 0.00 | 0.00 | 90 | 1013.3 |
| 20260506103519 | 15 | 106 | 1.6 | 4.8 | 0.00 | 0.00 | 0.00 | 90 | 1013.3 |
| 20260506103016 | 15 | 97 | 1.6 | 4.8 | 0.00 | 0.00 | 0.00 | 90 | 1013.3 |
| 20260506102514 | 15 | 132 | 8.0 | 11.3 | 0.00 | 0.00 | 0.00 | 90 | 1013.2 |
| 20260506102011 | 15 | 145 | 0.0 | 8.0 | 0.00 | 0.00 | 0.00 | 90 | 1012.9 |
| 20260506101507 | 15 | 120 | 0.0 | 8.0 | 0.00 | 0.00 | 0.00 | 91 | 1012.8 |
| 20260506101005 | 15 | 117 | 3.2 | 3.2 | 0.00 | 0.00 | 0.00 | 91 | 1012.9 |
| 20260506100503 | 15 | 89 | 3.2 | 4.8 | 0.00 | 0.00 | 0.00 | 91 | 1012.9 |
| 20260506100001 | 15 | 121 | 0.0 | 4.8 | 0.00 | 0.00 | 0.00 | 91 | 1012.8 |
| 20260506095459 | 15 | 142 | 0.0 | 4.8 | 0.00 | 0.00 | 0.00 | 91 | 1012.9 |
| 20260506094955 | 15 | 179 | 8.0 | 11.3 | 0.00 | 0.00 | 0.00 | 91 | 1012.6 |
| 20260506094453 | 15 | 108 | 0.0 | 4.8 | 0.00 | 0.00 | 0.00 | 91 | 1012.9 |
| 20260506093950 | 15 | 139 | 6.4 | 8.0 | 0.00 | 0.00 | 0.00 | 91 | 1012.9 |
| 20260506093449 | 15 | 141 | 4.8 | 8.0 | 0.00 | 0.00 | 0.00 | 90 | 1012.9 |
| 20260506092946 | 15 | 119 | 0.0 | 4.8 | 0.00 | 0.00 | 0.00 | 90 | 1012.8 |
| 20260506092444 | 15 | 116 | 0.0 | 4.8 | 0.00 | 0.00 | 0.00 | 90 | 1012.9 |
| 20260506091940 | 15 | 112 | 1.6 | 4.8 | 0.00 | 0.00 | 0.00 | 89 | 1012.8 |
| 20260506091439 | 15 | 164 | 0.0 | 3.2 | 0.00 | 0.00 | 0.00 | 89 | 1013.0 |
| 20260506090936 | 15 | 118 | 4.8 | 22.5 | 0.00 | 0.00 | 0.00 | 89 | 1012.9 |
| 20260506090433 | 15 | 125 | 3.2 | 11.3 | 0.00 | 0.00 | 0.00 | 89 | 1012.8 |
| 20260506085929 | 15 | 119 | 0.0 | 3.2 | 0.00 | 0.00 | 0.00 | 89 | 1012.9 |
| 20260506085426 | 15 | 168 | 4.8 | 14.5 | 0.00 | 0.00 | 0.00 | 89 | 1012.8 |
| 20260506084922 | 15 | 111 | 1.6 | 4.8 | 0.00 | 0.00 | 0.00 | 89 | 1012.8 |
| 20260506084420 | 15 | 87 | 4.8 | 4.8 | 0.00 | 0.00 | 0.00 | 88 | 1012.7 |
| 20260506083916 | 15 | 120 | 1.6 | 4.8 | 0.00 | 0.00 | 0.00 | 88 | 1012.9 |
| 20260506083413 | 15 | 94 | 4.8 | 8.0 | 0.00 | 0.00 | 0.00 | 88 | 1013.0 |
| 20260506082911 | 15 | 118 | 0.0 | 14.5 | 0.00 | 0.00 | 0.00 | 88 | 1012.9 |
| 20260506082408 | 15 | 120 | 1.6 | 3.2 | 0.00 | 0.00 | 0.00 | 88 | 1013.1 |
| 20260506081903 | 15 | 115 | 4.8 | 11.3 | 0.00 | 0.00 | 0.00 | 88 | 1012.7 |
| 20260506081402 | 15 | 111 | 0.0 | 8.0 | 0.00 | 0.00 | 0.00 | 88 | 1012.9 |
| 20260506080858 | 15 | 206 | 6.4 | 16.1 | 0.00 | 0.00 | 0.00 | 88 | 1013.1 |
| 20260506080355 | 15 | 118 | 3.2 | 8.0 | 0.00 | 0.00 | 0.00 | 88 | 1012.9 |
| 20260506073339 | 15 | 128 | 4.8 | 4.8 | 0.00 | 0.00 | 0.00 | 87 | 1012.7 |
| 20260506072836 | 15 | 106 | 1.6 | 4.8 | 0.00 | 0.00 | 0.00 | 87 | 1013.0 |
| 20260506072334 | 15 | 122 | 0.0 | 3.2 | 0.00 | 0.00 | 0.00 | 86 | 1013.0 |
| 20260506071831 | 15 | 122 | 1.6 | 3.2 | 0.00 | 0.00 | 0.00 | 86 | 1012.9 |
| 20260506071329 | 15 | 122 | 0.0 | 0.0 | 0.00 | 0.00 | 0.00 | 86 | 1013.0 |
| 20260506070826 | 16 | 118 | 1.6 | 3.2 | 0.00 | 0.00 | 0.00 | 85 | 1013.0 |
| 20260506070323 | 16 | 113 | 1.6 | 3.2 | 0.00 | 0.00 | 0.00 | 85 | 1012.7 |
| 20260506062300 | 16 | 109 | 4.8 | 4.8 | 0.00 | 0.00 | 0.00 | 82 | 1012.6 |
| 20260506061756 | 16 | 120 | 0.0 | 3.2 | 0.00 | 0.00 | 0.00 | 82 | 1012.7 |
| 20260506061253 | 16 | 120 | 1.6 | 8.0 | 0.00 | 0.00 | 0.00 | 81 | 1012.6 |
| 20260506060751 | 16 | 122 | 1.6 | 3.2 | 0.00 | 0.00 | 0.00 | 81 | 1012.8 |
| 20260506060249 | 16 | 115 | 0.0 | 8.0 | 0.00 | 0.00 | 0.00 | 80 | 1012.8 |
| 20260506051220 | 17 | 135 | 3.2 | 8.0 | 0.00 | 0.00 | 0.00 | 77 | 1013.0 |
| 20260506050719 | 17 | 108 | 0.0 | 11.3 | 0.00 | 0.00 | 0.00 | 77 | 1012.9 |
| 20260506050215 | 17 | 126 | 3.2 | 16.1 | 0.00 | 0.00 | 0.00 | 77 | 1012.9 |
| 20260506044706 | 17 | 121 | 6.4 | 11.3 | 0.00 | 0.00 | 0.00 | 77 | 1012.8 |
| 20260506044203 | 17 | 134 | 4.8 | 4.8 | 0.00 | 0.00 | 0.00 | 77 | 1012.9 |
| 20260506043701 | 17 | 194 | 4.8 | 8.0 | 0.00 | 0.00 | 0.00 | 77 | 1012.9 |
| 20260506043158 | 17 | 119 | 3.2 | 11.3 | 0.00 | 0.00 | 0.00 | 76 | 1013.1 |
| 20260506042657 | 17 | 114 | 1.6 | 11.3 | 0.00 | 0.00 | 0.00 | 77 | 1013.2 |
| 20260506042155 | 17 | 110 | 4.8 | 8.0 | 0.00 | 0.00 | 0.00 | 76 | 1012.9 |
| 20260506041653 | 17 | 129 | 1.6 | 3.2 | 0.00 | 0.00 | 0.00 | 76 | 1013.1 |
| 20260506041150 | 17 | 107 | 3.2 | 4.8 | 0.00 | 0.00 | 0.00 | 76 | 1013.1 |
| 20260506040647 | 17 | 94 | 1.6 | 4.8 | 0.00 | 0.00 | 0.00 | 76 | 1013.1 |
| 20260506040138 | 17 | 143 | 9.7 | 16.1 | 0.00 | 0.00 | 0.00 | 75 | 1013.3 |
| 20260506035635 | 17 | 117 | 1.6 | 4.8 | 0.00 | 0.00 | 0.00 | 75 | 1013.1 |
| 20260506035132 | 17 | 117 | 0.0 | 4.8 | 0.00 | 0.00 | 0.00 | 75 | 1013.3 |
| 20260506034629 | 17 | 140 | 3.2 | 19.3 | 0.00 | 0.00 | 0.00 | 75 | 1013.1 |
| 20260506034126 | 17 | 125 | 6.4 | 14.5 | 0.00 | 0.00 | 0.00 | 75 | 1013.1 |
| 20260506033623 | 17 | 150 | 4.8 | 11.3 | 0.00 | 0.00 | 0.00 | 74 | 1013.1 |
| 20260506033120 | 17 | 175 | 3.2 | 4.8 | 0.00 | 0.00 | 0.00 | 74 | 1013.3 |
| 20260506032617 | 17 | 108 | 1.6 | 14.5 | 0.00 | 0.00 | 0.00 | 74 | 1013.0 |
| 20260506032114 | 17 | 126 | 1.6 | 4.8 | 0.00 | 0.00 | 0.00 | 74 | 1013.0 |
| 20260506031611 | 17 | 232 | 4.8 | 8.0 | 0.00 | 0.00 | 0.00 | 73 | 1013.1 |
| 20260506031108 | 17 | 153 | 0.0 | 4.8 | 0.00 | 0.00 | 0.00 | 73 | 1013.0 |
| 20260506030607 | 17 | 138 | 3.2 | 8.0 | 0.00 | 0.00 | 0.00 | 73 | 1012.9 |
| 20260506030103 | 18 | 98 | 3.2 | 8.0 | 0.00 | 0.00 | 0.00 | 72 | 1013.2 |
| 20260506025600 | 18 | 118 | 1.6 | 11.3 | 0.00 | 0.00 | 0.00 | 72 | 1012.9 |
| 20260506025056 | 18 | 110 | 0.0 | 8.0 | 0.00 | 0.00 | 0.00 | 72 | 1013.1 |
| 20260506024554 | 18 | 138 | 3.2 | 4.8 | 0.00 | 0.00 | 0.00 | 71 | 1013.1 |
| 20260506024050 | 18 | 115 | 6.4 | 14.5 | 0.00 | 0.00 | 0.00 | 71 | 1012.9 |
| 20260506023546 | 18 | 165 | 4.8 | 16.1 | 0.00 | 0.00 | 0.00 | 70 | 1013.2 |
| 20260506023044 | 18 | 147 | 4.8 | 8.0 | 0.00 | 0.00 | 0.00 | 70 | 1012.9 |
| 20260506022541 | 18 | 150 | 4.8 | 8.0 | 0.00 | 0.00 | 0.00 | 70 | 1012.9 |
| 20260506022038 | 18 | 148 | 6.4 | 8.0 | 0.00 | 0.00 | 0.00 | 69 | 1013.0 |
| 20260506021536 | 18 | 120 | 6.4 | 16.1 | 0.00 | 0.00 | 0.00 | 70 | 1012.7 |
| 20260506021033 | 18 | 149 | 6.4 | 11.3 | 0.00 | 0.00 | 0.00 | 70 | 1012.8 |
| 20260506020530 | 19 | 141 | 4.8 | 14.5 | 0.00 | 0.00 | 0.00 | 70 | 1012.7 |
| 20260506020028 | 19 | 125 | 3.2 | 11.3 | 0.00 | 0.00 | 0.00 | 69 | 1012.6 |
| 20260506015525 | 19 | 136 | 1.6 | 4.8 | 0.00 | 0.00 | 0.00 | 69 | 1012.8 |
| 20260506015022 | 19 | 189 | 6.4 | 16.1 | 0.00 | 0.00 | 0.00 | 69 | 1012.5 |
| 20260506014519 | 19 | 115 | 1.6 | 14.5 | 0.00 | 0.00 | 0.00 | 70 | 1012.7 |
| 20260506014015 | 19 | 206 | 4.8 | 8.0 | 0.00 | 0.00 | 0.00 | 70 | 1012.5 |
| 20260506013513 | 19 | 115 | 0.0 | 4.8 | 0.00 | 0.00 | 0.00 | 70 | 1012.5 |
| 20260506013010 | 20 | 119 | 4.8 | 4.8 | 0.00 | 0.00 | 0.00 | 69 | 1012.3 |
| 20260506012506 | 20 | 140 | 1.6 | 11.3 | 0.00 | 0.00 | 0.00 | 69 | 1012.5 |
| 20260506012003 | 20 | 137 | 1.6 | 3.2 | 0.00 | 0.00 | 0.00 | 68 | 1012.5 |
| 20260506011500 | 20 | 133 | 1.6 | 8.0 | 0.00 | 0.00 | 0.00 | 67 | 1012.3 |
| 20260506010956 | 20 | 186 | 8.0 | 11.3 | 0.00 | 0.00 | 0.00 | 67 | 1012.5 |
| 20260506010456 | 20 | 115 | 6.4 | 8.0 | 0.00 | 0.00 | 0.00 | 67 | 1012.3 |
| 20260506005951 | 20 | 137 | 3.2 | 8.0 | 0.00 | 0.00 | 0.00 | 66 | 1012.3 |
| 20260506005449 | 20 | 144 | 4.8 | 19.3 | 0.00 | 0.00 | 0.00 | 66 | 1012.0 |
| 20260506004944 | 20 | 115 | 3.2 | 3.2 | 0.00 | 0.00 | 0.00 | 66 | 1012.5 |
| 20260506004443 | 21 | 151 | 4.8 | 8.0 | 0.00 | 0.00 | 0.00 | 65 | 1012.3 |
| 20260506003938 | 21 | 128 | 3.2 | 4.8 | 0.00 | 0.00 | 0.00 | 64 | 1012.0 |
| 20260506003435 | 21 | 113 | 1.6 | 3.2 | 0.00 | 0.00 | 0.00 | 64 | 1012.0 |
| 20260506002931 | 21 | 150 | 4.8 | 8.0 | 0.00 | 0.00 | 0.00 | 63 | 1011.9 |
| 20260506002427 | 21 | 112 | 4.8 | 8.0 | 0.00 | 0.00 | 0.00 | 63 | 1011.9 |
| 20260506001923 | 21 | 111 | 4.8 | 11.3 | 0.00 | 0.00 | 0.00 | 63 | 1011.4 |
| 20260506001420 | 21 | 145 | 8.0 | 22.5 | 0.00 | 0.00 | 0.00 | 62 | 1011.5 |
| 20260506000918 | 21 | 123 | 9.7 | 14.5 | 0.00 | 0.00 | 0.00 | 62 | 1011.1 |
| 20260506000416 | 22 | 178 | 9.7 | 22.5 | 0.00 | 0.00 | 0.00 | 62 | 1011.0 |
| 20260505235912 | 22 | 266 | 14.5 | 16.1 | 0.00 | 0.00 | 0.00 | 61 | 1011.1 |
| 20260505235410 | 22 | 230 | 4.8 | 19.3 | 0.00 | 0.00 | 0.00 | 61 | 1011.0 |
| 20260505234907 | 22 | 170 | 9.7 | 19.3 | 0.00 | 0.00 | 0.00 | 61 | 1010.8 |
| 20260505234404 | 22 | 140 | 3.2 | 11.3 | 0.00 | 0.00 | 0.00 | 61 | 1010.5 |
| 20260505233901 | 22 | 216 | 4.8 | 24.1 | 0.00 | 0.00 | 0.00 | 60 | 1010.6 |
| 20260505233358 | 22 | 195 | 4.8 | 22.5 | 0.00 | 0.00 | 0.00 | 60 | 1010.5 |
| 20260505232855 | 22 | 136 | 3.2 | 14.5 | 0.00 | 0.00 | 0.00 | 60 | 1010.3 |
| 20260505232354 | 22 | 134 | 11.3 | 24.1 | 0.00 | 0.00 | 0.00 | 59 | 1010.1 |
| 20260505231850 | 22 | 139 | 12.9 | 22.5 | 0.00 | 0.00 | 0.00 | 59 | 1010.1 |
| 20260505231347 | 22 | 130 | 6.4 | 14.5 | 0.00 | 0.00 | 0.00 | 60 | 1010.0 |
| 20260505230845 | 23 | 196 | 11.3 | 24.1 | 0.00 | 0.00 | 0.00 | 59 | 1010.0 |
| 20260505230342 | 23 | 124 | 1.6 | 19.3 | 0.00 | 0.00 | 0.00 | 59 | 1009.9 |
| 20260505225839 | 23 | 199 | 6.4 | 16.1 | 0.00 | 0.00 | 0.00 | 59 | 1009.9 |
| 20260505225336 | 23 | 148 | 6.4 | 8.0 | 0.00 | 0.00 | 0.00 | 58 | 1009.8 |
| 20260505224831 | 23 | 121 | 3.2 | 19.3 | 0.00 | 0.00 | 0.00 | 58 | 1009.7 |